This is the latest recevied weather packets stored in our database for station/object KJ4UBX-11. If no packets are shown the sender has not sent any weather packets the latest 10 day(s).
| Time | Temp. | Humidity | Pressure | Rain* | Wind** | Luminosity | Snow |
|---|---|---|---|---|---|---|---|
| 1778102099 | 15.56° C | 90% | 1004.8 hPa | - | - | - | - |
| 1778101515 | 15.56° C | 95% | 1004.9 hPa | - | - | - | - |
| 1778100933 | 15.56° C | 94% | 1005 hPa | - | - | - | - |
| 1778100349 | 15.56° C | 94% | 1004.8 hPa | - | - | - | - |
| 1778099765 | 16.11° C | 93% | 1005 hPa | - | - | - | - |
| 1778099183 | 16.11° C | 93% | 1004.9 hPa | - | - | - | - |
| 1778098600 | 16.11° C | 93% | 1004.7 hPa | - | - | - | - |
| 1778098017 | 16.67° C | 93% | 1005 hPa | - | - | - | - |
| 1778097435 | 16.11° C | 94% | 1005.2 hPa | - | - | - | - |
| 1778096851 | 16.67° C | 88% | 1005.3 hPa | - | - | - | - |
| 1778096268 | 16.67° C | 86% | 1005.6 hPa | - | - | - | - |
| 1778095685 | 16.67° C | 89% | 1005.4 hPa | - | - | - | - |
| 1778095103 | 16.67° C | 87% | 1005.4 hPa | - | - | - | - |
| 1778094518 | 16.67° C | 84% | 1005.6 hPa | - | - | - | - |
| 1778093935 | 16.67° C | 82% | 1005.5 hPa | - | - | - | - |
| 1778093352 | 17.22° C | 78% | 1005.3 hPa | - | - | - | - |
| 1778092770 | 16.67° C | 76% | 1005.3 hPa | - | - | - | - |
| 1778092186 | 16.67° C | 74% | 1005.3 hPa | - | - | - | - |
| 1778091603 | 17.22° C | 72% | 1005.4 hPa | - | - | - | - |
| 1778091020 | 16.67° C | 73% | 1005.5 hPa | - | - | - | - |
| 1778090437 | 17.22° C | 72% | 1005.5 hPa | - | - | - | - |
| 1778089853 | 17.22° C | 72% | 1005.5 hPa | - | - | - | - |
| 1778089269 | 16.67° C | 72% | 1005.7 hPa | - | - | - | - |
| 1778088686 | 16.67° C | 73% | 1005.9 hPa | - | - | - | - |
| 1778088103 | 17.22° C | 71% | 1006 hPa | - | - | - | - |
* Rain since midnight (hover to see other rain measurements)
** Current wind speed in m/s (hover to see current wind gust speed)